{"data":{"norad_id":58022,"intl_designator":"2023-155G","name":"CSC-1","alt_names":[],"object_type":"PAYLOAD","status":"ACTIVE","operator":null,"country":"NETH","launch_date":"2023-10-09","launch_site_code":"FRGUI","launch_vehicle":null,"mission":null,"orbit_class":"UNKNOWN","rcs_meters":null,"size_class":null,"mass_kg":null,"dimensions":null,"purposes":[],"wikipedia_slug":null,"has_3d_model":false,"image_url":null,"decayed_at":null,"tle_current":{"epoch":"2026-09-21T00:05:27.195072Z","epoch_age_seconds":190273,"freshness":"STALE","line1":"1 58022U 23155G   26264.00378698  .00002646  00000+0  16107-3 0  9999","line2":"2 58022  97.5281 332.0255 0006450 271.8530  88.1961 15.11265559162206","mean_motion":15.11265559,"eccentricity":0.000645,"inclination_deg":97.5281,"raan_deg":332.0255,"arg_perigee_deg":271.853,"mean_anomaly_deg":88.1961,"bstar":0.00016107,"rev_number":16220,"period_min":95.284378805856,"perigee_km":527.88208607405,"apogee_km":536.79660055693,"semimajor_km":6910.4763433155,"source":"CELESTRAK","updated_at":"2026-09-22T09:00:26.441752Z"}}}